User: anonymous
Location: Unspecified
(0.0000°N, 0.0000°E)
Time: 02:44:25
(UTC+02:00)
Language:

Cosmos 1898 Rocket - Orbit

View from above orbital plane
View from above orbital plane
View from above satellite
View from above satellite

Ground track
Ground track

The orbit data is extracted from the following two-line orbital elements,

1 18586U 87098B   14113.95618979  .00000352  00000-0  12904-3 0    84
2 18586 074.0080 252.8717 0021530 223.7617 275.0640 14.36404209382189
Epoch (UTC): 23 April 2014 22:56:54
Eccentricity: 0.0021530
inclination: 74.0080°
perigee height: 755 km
apogee height: 786 km
right ascension of ascending node: 252.8717°
argument of perigee: 223.7617°
revolutions per day: 14.36404209
mean anomaly at epoch: 275.0640°
orbit number at epoch: 38218

The dashed part of the orbit path shows where the satellite is in the earth's shadow,  

DLR